This is the latest recevied weather packets stored in our database for station/object HB9CJD-1. If no packets are shown the sender has not sent any weather packets the latest 10 day(s).
| Time | Temp. | Humidity | Pressure | Rain* | Wind** | Luminosity | Snow |
|---|---|---|---|---|---|---|---|
| 1777908886 | 20.56° C | 43% | 1015.2 hPa | - | - | - | - |
| 1777908886 | 20.56° C | 43% | 1015.2 hPa | - | - | - | - |
| 1777908283 | 21.11° C | 45% | 1015.1 hPa | - | - | - | - |
| 1777907076 | 21.11° C | 45% | 1015.1 hPa | - | - | - | - |
| 1777907076 | 21.11° C | 45% | 1015.1 hPa | - | - | - | - |
| 1777906473 | 21.11° C | 43% | 1015.1 hPa | - | - | - | - |
| 1777905870 | 21.11° C | 42% | 1015 hPa | - | - | - | - |
| 1777905870 | 21.11° C | 42% | 1015 hPa | - | - | - | - |
| 1777905266 | 21.67° C | 45% | 1014.9 hPa | - | - | - | - |
| 1777905266 | 21.67° C | 45% | 1014.9 hPa | - | - | - | - |
| 1777904664 | 22.22° C | 44% | 1014.9 hPa | - | - | - | - |
| 1777904060 | 22.22° C | 37% | 1014.8 hPa | - | - | - | - |
| 1777904060 | 22.22° C | 37% | 1014.8 hPa | - | - | - | - |
| 1777903457 | 22.22° C | 41% | 1014.8 hPa | - | - | - | - |
| 1777903457 | 22.22° C | 41% | 1014.8 hPa | - | - | - | - |
| 1777901647 | 22.78° C | 38% | 1014.9 hPa | - | - | - | - |
| 1777901647 | 22.78° C | 38% | 1014.9 hPa | - | - | - | - |
| 1777901044 | 23.89° C | 38% | 1014.9 hPa | - | - | - | - |
| 1777901044 | 23.89° C | 38% | 1014.9 hPa | - | - | - | - |
| 1777900440 | 25° C | 33% | 1015 hPa | - | - | - | - |
| 1777900440 | 25° C | 33% | 1015 hPa | - | - | - | - |
| 1777899234 | 23.33° C | 39% | 1015.1 hPa | - | - | - | - |
| 1777898631 | 22.78° C | 39% | 1015.1 hPa | - | - | - | - |
| 1777898028 | 22.78° C | 38% | 1015.1 hPa | - | - | - | - |
| 1777898028 | 22.78° C | 38% | 1015.1 hPa | - | - | - | - |
* Rain since midnight (hover to see other rain measurements)
** Current wind speed in m/s (hover to see current wind gust speed)